Warwick, RI

11:20 AM EDT on October 01, 2016 (GMT -0400)
Green State

Weather History for KPVD - August, 2014

Change the Weather History Date:

Sunday, August 17, 2014

  Actual Average Record
Temperature  
Mean Temperature 72 °F 72 °F  
Max Temperature 80 °F 82 °F 97 °F (1944)
Min Temperature 64 °F 63 °F 50 °F (1981)
Degree Days  
Heating Degree Days 0 0  
Month to date heating degree days 0 0  
Since 1 June heating degree days 13 46  
Since 1 July heating degree days 0 3  
Cooling Degree Days 7 8  
Month to date cooling degree days 107 142  
Year to date cooling degree days 510 566  
Since 1 June cooling degree days 499 540  
Growing Degree Days 22 (Base 50)    
Moisture  
Dew Point 59 °F    
Average Humidity 71    
Maximum Humidity 93    
Minimum Humidity 48    
Precipitation  
Precipitation 0.00 in 0.12 in 1.47 in (1909)
Month to date precipitation 2.45 2.00  
Year to date precipitation 31.20 29.00  
Snow  
Snow 0.00 in 0.00 in 0.00 in (2002)
Month to date snowfall 0.0 0.0  
Since 1 June snowfall 0.0 0.0  
Since 1 July snowfall 0.0 0.0  
Snow Depth 0.00 in    
Sea Level Pressure  
Sea Level Pressure 29.83 in    
Wind  
Wind Speed 6 mph (WNW)    
Max Wind Speed 14 mph    
Max Gust Speed 19 mph    
Visibility 10 miles    
Events      
T = Trace of Precipitation, MM = Missing Value Source: NWS Daily Summary

Daily Weather History Graph

Daily Weather History Graph

Search for Another Location

Airport or City:

Trip Planner

Search our weather history database for the weather conditions in past years. The results will help you decide how hot, cold, wet, or windy it might be!

Date:

Astronomy

Aug. 17, 2014 Rise Set
Actual Time 5:56 AM EDT 7:42 PM EDT
Civil Twilight 5:26 AM EDT 8:12 PM EDT
Nautical Twilight 4:50 AM EDT 8:48 PM EDT
Astronomical Twilight 4:11 AM EDT 9:27 PM EDT
Moon No Moon Rise 1:45 PM EDT (8/17)
Length of Visible Light 14h 45m
Length of Day
13h 46m
Waning Gibbous, 48% of the Moon is Illuminated
Aug 17
Waning Gibbous
Aug 25
New
Sep 2
First Quarter
Sep 8
Full
Sep 15
Last Quarter

Hourly Weather History & Observations

Time (EDT) Temp. Heat Index Dew Point Humidity Pressure Visibility Wind Dir Wind Speed Gust Speed Precip Events Conditions
12:51 AM 66.0 °F - 62.1 °F 87% 29.92 in 10.0 mi Calm Calm - N/A   Partly Cloudy
1:51 AM 64.9 °F - 62.1 °F 90% 29.89 in 10.0 mi Calm Calm - N/A   Clear
2:51 AM 64.9 °F - 62.1 °F 90% 29.87 in 10.0 mi Calm Calm - N/A   Clear
3:51 AM 64.9 °F - 62.1 °F 90% 29.87 in 10.0 mi Calm Calm - N/A   Partly Cloudy
4:51 AM 64.4 °F - 62.6 °F 94% 29.86 in 10.0 mi WSW 5.8 mph - N/A   Mostly Cloudy
5:51 AM 64.9 °F - 62.1 °F 90% 29.86 in 10.0 mi West 3.5 mph - N/A   Scattered Clouds
7:51 AM 68.0 °F - 62.6 °F 83% 29.86 in 10.0 mi Calm Calm - N/A   Partly Cloudy
8:51 AM 73.9 °F - 60.1 °F 62% 29.84 in 10.0 mi West 5.8 mph - N/A   Partly Cloudy
9:51 AM 75.9 °F - 59.0 °F 56% 29.83 in 10.0 mi SW 10.4 mph - N/A   Scattered Clouds
10:51 AM 78.1 °F - 57.9 °F 50% 29.83 in 10.0 mi WSW 9.2 mph - N/A   Mostly Cloudy
11:51 AM 78.1 °F - 59.0 °F 52% 29.81 in 10.0 mi WSW 9.2 mph - N/A   Mostly Cloudy
12:51 PM 75.0 °F - 59.0 °F 57% 29.80 in 10.0 mi NW 9.2 mph - N/A   Mostly Cloudy
1:51 PM 75.9 °F - 59.0 °F 56% 29.80 in 10.0 mi WNW 12.7 mph - N/A   Mostly Cloudy
2:51 PM 77.0 °F - 59.0 °F 54% 29.79 in 10.0 mi WNW 8.1 mph - N/A   Mostly Cloudy
3:51 PM 80.1 °F 80.9 °F 60.1 °F 50% 29.78 in 10.0 mi Variable 5.8 mph - N/A   Mostly Cloudy
4:51 PM 79.0 °F - 60.1 °F 52% 29.78 in 10.0 mi WNW 10.4 mph - N/A   Mostly Cloudy
5:51 PM 78.1 °F - 57.9 °F 50% 29.78 in 10.0 mi WNW 9.2 mph - N/A   Mostly Cloudy
6:51 PM 75.0 °F - 57.9 °F 55% 29.79 in 10.0 mi WNW 5.8 mph - N/A   Mostly Cloudy
7:51 PM 73.9 °F - 57.9 °F 57% 29.81 in 10.0 mi NW 5.8 mph - N/A   Scattered Clouds
8:51 PM 71.1 °F - 57.0 °F 61% 29.83 in 10.0 mi NNW 5.8 mph - N/A   Scattered Clouds
9:51 PM 69.1 °F - 55.9 °F 63% 29.84 in 10.0 mi North 5.8 mph - N/A   Scattered Clouds
10:51 PM 66.9 °F - 54.0 °F 63% 29.85 in 10.0 mi NW 4.6 mph - N/A   Scattered Clouds
11:51 PM 66.2 °F - 53.6 °F 64% 29.84 in 10.0 mi NW 5.8 mph - N/A   Partly Cloudy